H-2A R/B, 27369

Orbit data source: Space-Track

H-2A R/B, 27369 is space debris in HEO originally from a launch on Mon, 04 Feb 2002 UTC launched from the Tanegashima Space Center (TNSTA). Debris objects in space refer to the collection of defunct objects orbiting the Earth. Examples of debris include non-operational satellites, rocket bodies, and fragments generated from explosions, collisions, or faulty payload assembly.

Loading next visibility...
Identifier
27369, 2002-003C
Orbit
HEO
Last TLE update
19 hours ago
Origin
Manufacturer
Unknown
Mission
Spacecraft
Bus & Motor
H-2A STAGE 2, Unknown motor
Mass
4,000 kg wet, 4,000 kg dry
Launch date (UTC)
2002-02-04 (23 years ago)
Launch vehicle
Unknown
Launch site
Tanegashima Space Center (TNSTA)
Object type
Payload
Rocket body
Debris
Shape & HBR
Cyl, 9.2 m
Radar Cross Section
35.186 m², Large (>1 m²)

Expand to show TLE details & history

TLE from 19 hours ago
0 H-2A R/B
1 27369U 02003C   25185.54967396 -.00000086  00000-0  00000-0 0  9997
2 27369  23.8844 259.9334 6893035  43.2457 353.7013  2.37190213202253
Epoch: 2025-07-04T13:11Z
TLE epoch observation values (Epoch: 2025-07-04T13:11:31.83Z)
Latitude
-0.00007°
Longitude
139.32098°
Altitude
1,901.578 km
Speed
8.916 km/s
True Right ascension
17h 20m 00s
True Declination
0° 00' 00"
Sunlit
Object was in full shadow at epoch
Visualization orbit readout
Latitude
-23.89596°
Longitude
52.91398°
Altitude
16,016.075 km
Speed
4.338 km/s
Apparent Right ascension
10h 58m 02s
Apparent Declination
-28° 46' 36"
Sunlit
Object is in daylight
Visualization observer readout
Local Sidereal Time
20:12:45
Azimuth
275.249° WNW
Elevation
-54.467°
Doppler factor
1
Orbital elements
Apogee altitude
33,749.71 km
Perigee altitude
1,002.172 km
Semi-major axis
23,754.078 km
Eccentricity
0.6893
Inclination
23.8844°
RAAN
259.9334°
Arg. of periapsis
43.2457°
True anomaly
Unknown
Mean anomaly
353.7013°
Eccentric anomaly
Unknown
Mean motion
0.59284 °/min
Orbital period
607.25 mins
BSTAR
0
Loading maneuver chart data...
Loading SW <> Apogee altitude chart data...
Loading historical data...
Loading historical data...
Loading historical data...
Loading historical data...
Loading historical data...
Loading historical data...
Loading historical data...
Other satellites on launch #3 in the year 2002 (2002-02-04 UTC)

H-2A R/B Visibility forecast

Observer location: undefined°, undefined°

Span
Click to sort rows by Start time (UTC) header in descending order
Start Az.
Max El. time (UTC)
Max El. Az.
Max El.
End time (UTC)
End Az.
13 mins2025-07-05 09:39:53.024Z197.237° SSW2025-07-05 09:43:53.024Z149.212° SSE21.346°2025-07-05 09:52:53.024Z104.071° ESE
|